This demonstration page uses our WeatherBlox Daily Observations layout. Learn more.

Left ArrowRight Arrow

44.8408, -93.29828

Hourly Observations for June 2, 2015

Temp ( °F °C ) Dew Point ( °F °C ) Humidity (%) Winds ( mph kmh ) Pressure ( in mb ) Visibility ( mi km ) Precip ( " mm )
12:53 am 00:53 Clear 58 14.4 43 6.1 58 58 SE 10 17 30.10 1019 10 16 0.00 0.00
1:53 am 01:53 Clear 56 13.3 41 5 57 57 SE 12 19 30.09 1019 10 16 0.00 0.00
2:53 am 02:53 Clear 56 13.3 41 5 57 57 SE 8 13 30.08 1019 10 16 0.00 0.00
3:53 am 03:53 Clear 55 12.8 40 4.4 57 57 SE 7 11 30.09 1019 10 16 0.00 0.00
4:53 am 04:53 Mostly Cloudy 54 12.2 41 5 62 62 SE 8 13 30.08 1019 10 16 0.00 0.00
5:53 am 05:53 Mostly Cloudy 54 12.2 41 5 62 62 SE 8 13 30.08 1019 10 16 0.00 0.00
6:53 am 06:53 Mostly Cloudy 56 13.3 42 5.6 60 60 SSE 13 20 30.09 1019 10 16 0.00 0.00
7:53 am 07:53 Mostly Cloudy 59 15 46 7.8 62 62 S 10 17 30.08 1019 10 16 0.00 0.00
8:53 am 08:53 Mostly Cloudy 63 17.2 49 9.4 60 60 SSE 12 19 30.07 1018 10 16 0.00 0.00
9:53 am 09:53 Mostly Cloudy 66 18.9 51 10.6 59 59 SSE 13 20 30.05 1018 10 16 0.00 0.00
10:53 am 10:53 Mostly Cloudy 69 20.6 52 11.1 55 55 SSE 18 30 30.03 1017 10 16 0.00 0.00
11:53 am 11:53 Mostly Cloudy 71 21.7 52 11.1 51 51 S 17 28 30.03 1017 10 16 0.00 0.00
12:53 pm 12:53 Mostly Cloudy 72 22.2 53 11.7 52 52 S 12 19 30.03 1017 10 16 0.00 0.00
1:53 pm 13:53 Mostly Cloudy 72 22.2 53 11.7 52 52 SSE 16 26 30.01 1016 10 16 0.00 0.00
2:53 pm 14:53 Mostly Cloudy 74 23.3 53 11.7 48 48 SE 17 28 29.97 1015 10 16 0.00 0.00
3:53 pm 15:53 Mostly Cloudy 74 23.3 52 11.1 46 46 SSE 21 33 29.95 1014 10 16 0.00 0.00
4:53 pm 16:53 Mostly Cloudy 75 23.9 53 11.7 46 46 SSE 15 24 29.93 1014 10 16 0.00 0.00
5:53 pm 17:53 Mostly Cloudy 75 23.9 52 11.1 45 45 S 17 28 29.91 1013 10 16 0.00 0.00
6:53 pm 18:53 Mostly Cloudy 75 23.9 52 11.1 45 45 SSE 14 22 29.91 1013 10 16 0.00 0.00
7:53 pm 19:53 Partly Cloudy 74 23.3 52 11.1 46 46 SSE 14 22 29.90 1012 10 16 0.00 0.00
8:53 pm 20:53 Partly Cloudy 72 22.2 52 11.1 50 50 SSE 13 20 29.90 1012 10 16 0.00 0.00
9:53 pm 21:53 Partly Cloudy 69 20.6 52 11.1 55 55 SE 12 19 29.89 1012 10 16 0.00 0.00
10:53 pm 22:53 Mostly Clear 68 20 52 11.1 57 57 SSE 8 13 29.92 1013 10 16 0.00 0.00
11:53 pm 23:53 Mostly Clear 66 18.9 52 11.1 61 61 SSE 7 11 29.91 1013 10 16 0.00 0.00

Powered by AerisWeather